Time,TemperatureF,DewpointF,PressureIn,WindDirection,WindDirectionDegrees,WindSpeedMPH,WindSpeedGustMPH,Humidity,HourlyPrecipIn,Conditions,Clouds,dailyrainin,SolarRadiationWatts/m^2,SoftwareType,DateUTC
2013-08-20 00:01:00,58.0,47.0,-100.00,ENE,70,0.0,4.0,66,0.00,,,0.00,1.000000,,2013-08-20 07:01:00,
2013-08-20 00:11:00,58.0,47.0,-100.00,ENE,70,0.0,4.0,66,0.00,,,0.00,1.000000,,2013-08-20 07:11:00,
2013-08-20 00:21:00,58.0,47.0,-100.00,ENE,70,0.0,4.0,66,0.00,,,0.00,1.000000,,2013-08-20 07:21:00,
2013-08-20 00:52:00,57.0,47.0,-100.00,ESE,106,1.0,2.0,69,0.00,,,0.00,1.000000,,2013-08-20 07:52:00,
2013-08-20 01:02:00,57.0,47.0,-100.00,ESE,106,1.0,2.0,69,0.00,,,0.00,1.000000,,2013-08-20 08:02:00,
2013-08-20 01:11:00,57.0,47.0,-100.00,ESE,106,1.0,2.0,69,0.00,,,0.00,1.000000,,2013-08-20 08:11:00,
2013-08-20 01:21:00,57.0,47.0,-100.00,ESE,106,1.0,2.0,69,0.00,,,0.00,1.000000,,2013-08-20 08:21:00,
2013-08-20 01:52:00,55.0,47.0,-100.00,ENE,59,1.0,2.0,74,0.00,,,0.00,1.000000,,2013-08-20 08:52:00,
2013-08-20 02:01:00,55.0,47.0,-100.00,ENE,59,1.0,2.0,74,0.00,,,0.00,1.000000,,2013-08-20 09:01:00,
2013-08-20 02:11:00,55.0,47.0,-100.00,ENE,59,1.0,2.0,74,0.00,,,0.00,1.000000,,2013-08-20 09:11:00,
2013-08-20 02:21:00,55.0,47.0,-100.00,ENE,59,1.0,2.0,74,0.00,,,0.00,1.000000,,2013-08-20 09:21:00,
2013-08-20 02:53:00,53.0,46.0,-100.00,ESE,117,1.0,3.0,77,0.00,,,0.00,1.000000,,2013-08-20 09:53:00,
2013-08-20 03:03:00,53.0,46.0,-100.00,ESE,117,1.0,3.0,77,0.00,,,0.00,1.000000,,2013-08-20 10:03:00,
2013-08-20 03:12:00,53.0,46.0,-100.00,ESE,117,1.0,3.0,77,0.00,,,0.00,1.000000,,2013-08-20 10:12:00,
2013-08-20 03:22:00,53.0,46.0,-100.00,ESE,117,1.0,3.0,77,0.00,,,0.00,1.000000,,2013-08-20 10:22:00,
2013-08-20 08:24:00,-999.0,-99.9,-100.00,East,80,3.0,9.0,50,-99.99,,,0.00,243.000000,,2013-08-20 15:24:00,
2013-08-20 09:24:00,69.0,45.0,-100.00,East,95,3.0,7.0,42,-99.99,,,0.00,424.000000,,2013-08-20 16:24:00,
2013-08-20 09:53:00,69.0,45.0,-100.00,East,95,3.0,7.0,42,-99.99,,,0.00,424.000000,,2013-08-20 16:53:00,
2013-08-20 10:03:00,69.0,45.0,-100.00,East,95,3.0,7.0,42,-99.99,,,0.00,424.000000,,2013-08-20 17:03:00,
2013-08-20 10:12:00,69.0,45.0,-100.00,East,95,3.0,7.0,42,-99.99,,,0.00,424.000000,,2013-08-20 17:12:00,
2013-08-20 10:52:00,73.0,35.0,-100.00,ENE,61,3.0,8.0,25,0.00,,,0.00,593.000000,,2013-08-20 17:52:00,
2013-08-20 11:02:00,73.0,35.0,-100.00,ENE,61,3.0,8.0,25,0.00,,,0.00,593.000000,,2013-08-20 18:02:00,
2013-08-20 11:12:00,73.0,35.0,-100.00,ENE,61,3.0,8.0,25,0.00,,,0.00,593.000000,,2013-08-20 18:12:00,
2013-08-20 11:21:00,73.0,35.0,-100.00,ENE,61,3.0,8.0,25,0.00,,,0.00,593.000000,,2013-08-20 18:21:00,
2013-08-20 11:52:00,76.0,29.0,-100.00,ENE,62,3.0,10.0,18,0.00,,,0.00,716.000000,,2013-08-20 18:52:00,
2013-08-20 12:01:00,76.0,29.0,-100.00,ENE,62,3.0,10.0,18,0.00,,,0.00,716.000000,,2013-08-20 19:01:00,
2013-08-20 12:11:00,76.0,29.0,-100.00,ENE,62,3.0,10.0,18,0.00,,,0.00,716.000000,,2013-08-20 19:11:00,
2013-08-20 12:21:00,76.0,29.0,-100.00,ENE,62,3.0,10.0,18,0.00,,,0.00,716.000000,,2013-08-20 19:21:00,
2013-08-20 12:52:00,78.0,30.0,-100.00,NE,40,5.0,11.0,17,0.00,,,0.00,806.000000,,2013-08-20 19:52:00,
2013-08-20 13:03:00,78.0,30.0,-100.00,NE,40,5.0,11.0,17,0.00,,,0.00,806.000000,,2013-08-20 20:03:00,
2013-08-20 13:11:00,78.0,30.0,-100.00,NE,40,5.0,11.0,17,0.00,,,0.00,806.000000,,2013-08-20 20:11:00,
2013-08-20 13:21:00,78.0,30.0,-100.00,NE,40,5.0,11.0,17,0.00,,,0.00,806.000000,,2013-08-20 20:21:00,
2013-08-20 13:52:00,84.0,28.0,-100.00,East,82,4.0,9.0,13,0.00,,,0.00,875.000000,,2013-08-20 20:52:00,
2013-08-20 14:02:00,84.0,28.0,-100.00,East,82,4.0,9.0,13,0.00,,,0.00,875.000000,,2013-08-20 21:02:00,
2013-08-20 14:11:00,84.0,28.0,-100.00,East,82,4.0,9.0,13,0.00,,,0.00,875.000000,,2013-08-20 21:11:00,
2013-08-20 14:22:00,84.0,28.0,-100.00,East,82,4.0,9.0,13,0.00,,,0.00,875.000000,,2013-08-20 21:22:00,
2013-08-20 14:24:00,84.0,26.0,-100.00,ENE,60,4.0,9.0,12,0.00,,,0.00,853.000000,,2013-08-20 21:24:00,
2013-08-20 15:14:00,84.0,26.0,-100.00,ENE,60,4.0,9.0,12,0.00,,,0.00,853.000000,,2013-08-20 22:14:00,
2013-08-20 15:53:00,85.0,22.0,-100.00,NNE,30,4.0,12.0,10,0.00,,,0.00,807.000000,,2013-08-20 22:53:00,
2013-08-20 16:03:00,85.0,22.0,-100.00,NNE,30,4.0,12.0,10,0.00,,,0.00,807.000000,,2013-08-20 23:03:00,
2013-08-20 16:12:00,85.0,22.0,-100.00,NNE,30,4.0,12.0,10,0.00,,,0.00,807.000000,,2013-08-20 23:12:00,
2013-08-20 16:22:00,85.0,22.0,-100.00,NNE,30,4.0,12.0,10,0.00,,,0.00,807.000000,,2013-08-20 23:22:00,
2013-08-20 16:53:00,84.0,24.0,-100.00,North,350,4.0,10.0,11,0.00,,,0.00,687.000000,,2013-08-20 23:53:00,
2013-08-20 17:02:00,84.0,24.0,-100.00,North,350,4.0,10.0,11,0.00,,,0.00,687.000000,,2013-08-21 00:02:00,
2013-08-20 17:12:00,84.0,24.0,-100.00,North,350,4.0,10.0,11,0.00,,,0.00,687.000000,,2013-08-21 00:12:00,
2013-08-20 17:22:00,84.0,24.0,-100.00,North,350,4.0,10.0,11,0.00,,,0.00,687.000000,,2013-08-21 00:22:00,
2013-08-20 17:52:00,81.0,22.0,-100.00,North,6,3.0,11.0,11,0.00,,,0.00,431.000000,,2013-08-21 00:52:00,
2013-08-20 18:02:00,81.0,22.0,-100.00,North,6,3.0,11.0,11,0.00,,,0.00,431.000000,,2013-08-21 01:02:00,
2013-08-20 18:11:00,81.0,22.0,-100.00,North,6,3.0,11.0,11,0.00,,,0.00,431.000000,,2013-08-21 01:11:00,
2013-08-20 18:21:00,81.0,22.0,-100.00,North,6,3.0,11.0,11,0.00,,,0.00,431.000000,,2013-08-21 01:21:00,
2013-08-20 18:52:00,76.0,22.0,-100.00,NNE,15,4.0,9.0,13,0.00,,,0.00,232.000000,,2013-08-21 01:52:00,
2013-08-20 19:02:00,76.0,22.0,-100.00,NNE,15,4.0,9.0,13,0.00,,,0.00,232.000000,,2013-08-21 02:02:00,
2013-08-20 19:12:00,76.0,22.0,-100.00,NNE,15,4.0,9.0,13,0.00,,,0.00,232.000000,,2013-08-21 02:12:00,
2013-08-20 19:22:00,76.0,22.0,-100.00,NNE,15,4.0,9.0,13,0.00,,,0.00,232.000000,,2013-08-21 02:22:00,
2013-08-20 19:52:00,73.0,23.0,-100.00,NNE,33,2.0,6.0,15,0.00,,,0.00,75.000000,,2013-08-21 02:52:00,
2013-08-20 20:02:00,73.0,23.0,-100.00,NNE,33,2.0,6.0,15,0.00,,,0.00,75.000000,,2013-08-21 03:02:00,
2013-08-20 20:12:00,73.0,23.0,-100.00,NNE,33,2.0,6.0,15,0.00,,,0.00,75.000000,,2013-08-21 03:12:00,
2013-08-20 20:22:00,73.0,23.0,-100.00,NNE,33,2.0,6.0,15,0.00,,,0.00,75.000000,,2013-08-21 03:22:00,
2013-08-20 20:55:00,69.0,24.0,-100.00,WSW,251,2.0,7.0,18,0.00,,,-99.99,12.000000,,2013-08-21 03:55:00,
2013-08-20 21:04:00,69.0,24.0,-100.00,WSW,251,2.0,7.0,18,0.00,,,-99.99,12.000000,,2013-08-21 04:04:00,
2013-08-20 21:13:00,69.0,24.0,-100.00,WSW,251,2.0,7.0,18,0.00,,,-99.99,12.000000,,2013-08-21 04:13:00,
2013-08-20 21:23:00,69.0,24.0,-100.00,WSW,251,2.0,7.0,18,0.00,,,-99.99,12.000000,,2013-08-21 04:23:00,
2013-08-20 21:54:00,66.0,21.0,-100.00,SW,220,2.0,6.0,18,0.00,,,0.00,1.000000,,2013-08-21 04:54:00,
2013-08-20 22:02:00,66.0,21.0,-100.00,SW,220,2.0,6.0,18,0.00,,,0.00,1.000000,,2013-08-21 05:02:00,
2013-08-20 22:12:00,66.0,21.0,-100.00,SW,220,2.0,6.0,18,0.00,,,0.00,1.000000,,2013-08-21 05:12:00,
2013-08-20 22:22:00,66.0,21.0,-100.00,SW,220,2.0,6.0,18,0.00,,,0.00,1.000000,,2013-08-21 05:22:00,
2013-08-20 22:52:00,63.0,24.0,-100.00,NE,46,2.0,6.0,22,0.00,,,0.00,1.000000,,2013-08-21 05:52:00,
2013-08-20 23:02:00,63.0,24.0,-100.00,NE,46,2.0,6.0,22,0.00,,,0.00,1.000000,,2013-08-21 06:02:00,
2013-08-20 23:12:00,63.0,24.0,-100.00,NE,46,2.0,6.0,22,0.00,,,0.00,1.000000,,2013-08-21 06:12:00,
2013-08-20 23:22:00,63.0,24.0,-100.00,NE,46,2.0,6.0,22,0.00,,,0.00,1.000000,,2013-08-21 06:22:00,
2013-08-20 23:52:00,61.0,26.0,-100.00,NNE,20,2.0,6.0,26,0.00,,,0.00,1.000000,,2013-08-21 06:52:00,